Regional Weather Roundup
Issued by NWS

Home | Current Version | Previous Version | Graphics & Text | Print | Product List | Glossary Off
Versions: 1 2 3 4 5 6 7 8 9 10 11 12 13 14 15 16 17 18 19 20 21 22 23 24 25 26 27 28 29 30 31 32 33 34 35 36 37 38 39 40 41 42 43 44 45 46 47 48 49 50

000
ASUS43 KTOP 271059
RWRKS

WEATHER ROUNDUP FOR KANSAS
NATIONAL WEATHER SERVICE GOODLAND KS
500 AM CST THU NOV 27 2014

NOTE:  "FAIR" INDICATES FEW OR NO CLOUDS BELOW 12,000 FEET WITH NO
SIGNIFICANT WEATHER AND/OR OBSTRUCTIONS TO VISIBILITY.

KSZ001>006-013>018-027>032-041>047-271200-
NORTHWEST KANSAS

CITY           SKY/WX    TMP DP  RH WIND       PRES   REMARKS
GOODLAND       CLEAR     25  18  74 S16       30.29F WCI  12
HAYS           CLEAR     21  10  63 S6        30.43F
HILL CITY      CLEAR     20  14  77 CALM      30.41F
RUSSELL        CLEAR     22  17  81 SE3       30.45R
$$

KSZ061>065-074>080-084>089-271200-
SOUTHWEST KANSAS

CITY           SKY/WX    TMP DP  RH WIND       PRES   REMARKS
DODGE CITY     PTCLDY    20  15  81 S9        30.43S
ELKHART          N/A     26  13  58 S10         N/A  WCI  16
GARDEN CITY    PTCLDY    20  15  81 SW7       30.41R
GREAT BEND     CLEAR     23  12  63 SE5       30.47R
LIBERAL        PTCLDY    21  12  68 SW7       30.43S
$$

KSZ066>073-081>083-090>101-271200-
SOUTHEAST KANSAS

CITY           SKY/WX    TMP DP  RH WIND       PRES   REMARKS
CHANUTE        CLEAR     23  19  85 N5        30.47F
COFFEYVILLE    CLEAR     23  19  85 NW5       30.50R
HUTCHINSON     CLEAR     21  15  78 CALM      30.48S
MEDICINE LODGE   N/A     23  19  85 CALM      30.48S
NEWTON         CLEAR     21  12  68 W5        30.49R
PARSONS        CLEAR     22  19  89 CALM      30.50R
WICHITA INTL   PTCLDY    25  17  72 NW5       30.49S
WICHITA JABRA  CLEAR     24  18  77 W3        30.49R
WINFIELD       CLEAR     25  20  81 CALM      30.50F
$$

KSZ007>012-019>026-033>040-048>060-102>105-271200-
NORTHEAST KANSAS

CITY           SKY/WX    TMP DP  RH WIND       PRES   REMARKS
CONCORDIA      PTCLDY    16  13  88 W3        30.47R
EMPORIA        CLEAR     18  16  92 NW6       30.48R
LAWRENCE       CLOUDY    23  18  81 N6        30.50R
MANHATTAN      MOCLDY    19  15  84 NE3       30.50R
OLATHE IND     CLEAR     21  18  88 N7        30.47S
OLATHE EXE     MOCLDY    25  20  81 N8        30.45F
SALINA         CLEAR     22  14  71 CALM      30.50R
TOPEKA BILLARD CLOUDY    25  20  81 N8        30.50R
TOPEKA FORBES  MOCLDY    23  18  81 N5        30.47R
$$


USA.gov is the U.S. government's official web portal to all federal, state and local government web resources and services.